Content
SEND FEEDBACK

Daily
Averages
Monthly
Summary
United States of America

ANN ARBOR, MICHIGAN


Home > North America > United States > Michigan
Elevation: 759 feet     Latitude: 42 17N     Longitude: 083 43W

WEATHER
 
SELECT A DAY
Number of Records: 208,012;   Date Range: 1/1/95 - 11/22/14
 
SHARE

PRINT THIS DATA

[ ← Previous Day ]
WEATHER ALMANAC - FEBRUARY 13, 2013
[ Next Day → ]
[ °C ]   °F
Weather ElementAverageHighLow
Temperature30 °F37.9 °F (2:53 pm)26.1 °F (7:53 am)
Dewpoint22.2 °F25 °F (4:53 pm)19 °F (1:53 am)
Humidity73.4 %88 % (10:53 pm)55 % (2:53 pm)
Barometer29.83 in29.93 in (1:53 am)29.75 in (3:53 pm)
Wind Speed4.3 mph8.1 mph (2:53 pm)
Weather ElementAverage
Visibility9.2 mi
Wind DirectionSSE (171.7 °)

Weather ElementTotal
Precipitation---
Heating Degree Days33 (Base 65)
Averaged from 23 records on February 13, 2013
WEATHER CONDITIONS BREAKOUT
WIND DIRECTION BREAKOUT
WEATHER BY HOUR - FEBRUARY 13, 2013
[ °C ]   °F
Local TimeTemperatureDewpointHumidityBarometerVisibilityWind DirectionWind SpeedGust SpeedPrecipitationEventsConditions
1:53 AM27.0 °F19.0 °F72 %29.93 in10.0 miWNW (300°)5.8 mphOvercast
2:53 AM27.0 °F19.9 °F75 %29.92 in10.0 miNW (320°)6.9 mphOvercast
3:53 AM27.0 °F19.9 °F75 %29.90 in10.0 miWNW (300°)3.5 mphOvercast
4:53 AM27.0 °F19.9 °F75 %29.90 in10.0 miWNW (300°)6.9 mphOvercast
5:53 AM27.0 °F19.9 °F75 %29.88 in10.0 miCalmOvercast
6:53 AM27.0 °F19.9 °F75 %29.88 in10.0 miCalmOvercast
7:53 AM26.1 °F19.9 °F78 %29.86 in10.0 miCalmOvercast
8:53 AM27.0 °F19.9 °F75 %29.86 in10.0 miCalmOvercast
9:53 AM28.0 °F19.9 °F72 %29.83 in10.0 miSE (140°)4.6 mphOvercast
10:53 AM28.9 °F21.0 °F72 %29.84 in10.0 miSSW (210°)5.8 mphMostly Cloudy
11:53 AM30.0 °F21.9 °F72 %29.84 in10.0 miWSW (240°)5.8 mphScattered Clouds
12:53 PM33.1 °F21.9 °F64 %29.81 in10.0 miWNW (290°)4.6 mphClear
1:53 PM36.0 °F23.0 °F59 %29.77 in10.0 miWest (270°)6.9 mphClear
2:53 PM37.9 °F23.0 °F55 %29.76 in10.0 miSW (230°)8.1 mphClear
3:53 PM37.9 °F24.1 °F57 %29.75 in10.0 miSouth (190°)6.9 mphClear
4:53 PM37.0 °F25.0 °F62 %29.75 in10.0 miVariable5.8 mphClear
5:53 PM33.1 °F25.0 °F72 %29.77 in10.0 miSouth (180°)4.6 mphClear
6:53 PM30.9 °F25.0 °F79 %29.78 in9.0 miSouth (190°)3.5 mphClear
7:53 PM30.9 °F25.0 °F79 %29.79 in8.0 miCalmOvercast
8:53 PM28.9 °F25.0 °F85 %29.80 in8.0 miSSW (200°)4.6 mphMostly Cloudy
9:53 PM28.9 °F25.0 °F85 %29.81 in6.0 miSSW (200°)5.8 mphClear
10:53 PM28.0 °F25.0 °F88 %29.81 in6.0 miSSW (200°)4.6 mphScattered Clouds
11:53 PM26.1 °F23.0 °F88 %29.80 in5.0 miSouth (190°)4.6 mphPartly Cloudy
Hourly data recorded from KARB, located miles away from Ann Arbor, Michigan







STORIES FROM OUR PARTNERS